Weather History for HKMO - August, 2012

Change the Weather History Date:

Thursday, August 9, 2012

  Actual Average Record
Temperature  
Mean Temperature 76 °F -  
Max Temperature 82 °F 84 °F 84 °F (2002)
Min Temperature 71 °F 67 °F 41 °F (2007)
Cooling Degree Days 12    
Growing Degree Days 26 (Base 50)    
Moisture  
Dew Point 70 °F    
Average Humidity 80    
Maximum Humidity 94    
Minimum Humidity 55    
Precipitation  
Precipitation 0.20 in 0.09 in - ()
Sea Level Pressure  
Sea Level Pressure 30.02 in    
Wind  
Wind Speed 7 mph ()    
Max Wind Speed 15 mph    
Max Gust Speed -    
Visibility 8.4 miles    
Events Rain    
Averages and records for this station are not official NWS values.
T = Trace of Precipitation, MM = Missing Value Source: Averaged Metar Reports

Daily Weather History Graph

Daily Weather History Graph

Search for Another Location

Airport or City:

Trip Planner

Search our weather history database for the weather conditions in past years. The results will help you decide how hot, cold, wet, or windy it might be!

Date:

Astronomy

Aug. 09, 2012 Rise Set
Actual Time 6:28 AM EAT 6:25 PM EAT
Civil Twilight 6:06 AM EAT 6:47 PM EAT
Nautical Twilight 5:41 AM EAT 7:12 PM EAT
Astronomical Twilight 5:16 AM EAT 7:37 PM EAT
Moon No Moon Rise 11:41 AM EAT (8/9)
Length of Visible Light 12h 40m
Length of Day
11h 57m
Waning Gibbous, 54% of the Moon is Illuminated
Aug 9
Waning Gibbous
Aug 9
Last Quarter
Aug 17
New
Aug 24
First Quarter
Aug 31
Full

Hourly Weather History & Observations

Time (EAT) Temp. Heat Index Dew Point Humidity Pressure Visibility Wind Dir Wind Speed Gust Speed Precip Events Conditions
12:00 AM 73.4 °F - 71.6 °F 94% 30.04 in 6.2 mi SSW 6.9 mph - N/A   Mostly Cloudy
3:00 AM 73 °F - 71 °F 90% 30.00 in 19 mi SSW 6.9 mph - -   Scattered Clouds
3:00 AM 73.4 °F - 71.6 °F 94% 30.01 in 6.2 mi SSW 6.9 mph - N/A   Partly Cloudy
7:00 AM 71.6 °F - 69.8 °F 94% 30.04 in 6.2 mi West 3.5 mph - N/A   Scattered Clouds
8:00 AM 73.4 °F - 71.6 °F 94% 30.06 in 6.2 mi WSW 8.1 mph - N/A   Mostly Cloudy
9:00 AM 75 °F - 70 °F 80% 30.07 in 19 mi SSW 4.6 mph - -   Scattered Clouds
9:00 AM 75.2 °F - 69.8 °F 83% 30.06 in 6.2 mi SSW 4.6 mph - N/A   Mostly Cloudy
10:00 AM 77.0 °F - 69.8 °F 78% 30.06 in 6.2 mi SSW 5.8 mph - N/A   Mostly Cloudy
11:00 AM 73.4 °F - 69.8 °F 88% 30.06 in 6.2 mi SE 5.8 mph - N/A Rain Light Rain
12:00 PM 73.4 °F - 71.6 °F 94% 30.06 in 6.2 mi South 5.8 mph - N/A   Overcast
1:00 PM 77.0 °F - 69.8 °F 78% 30.04 in 6.2 mi SSE 3.5 mph - N/A   Mostly Cloudy
2:00 PM 80.6 °F 83.9 °F 69.8 °F 70% 30.01 in 6.2 mi South 11.5 mph - N/A   Mostly Cloudy
3:00 PM 82 °F - 69 °F 55% 29.99 in 19 mi South 15.0 mph - -   Scattered Clouds
3:00 PM 82.4 °F 85.4 °F 68.0 °F 62% 29.98 in 6.2 mi South 15.0 mph - N/A   Partly Cloudy
4:00 PM 82.4 °F 84.6 °F 66.2 °F 58% 29.98 in 6.2 mi SSE 5.8 mph - N/A   Partly Cloudy
5:00 PM 82.4 °F 84.6 °F 66.2 °F 58% 29.98 in 6.2 mi South 10.4 mph - N/A   Scattered Clouds
6:00 PM 80.6 °F 83.9 °F 69.8 °F 70% 29.98 in 6.2 mi SSE 9.2 mph - N/A   Mostly Cloudy
7:00 PM 77.0 °F - 69.8 °F 78% 29.98 in 6.2 mi South 9.2 mph - N/A   Partly Cloudy
8:00 PM 77.0 °F - 71.6 °F 83% 30.01 in 6.2 mi SSW 8.1 mph - N/A   Scattered Clouds
9:00 PM 76 °F - 71 °F 79% 30.01 in 19 mi SSW 8.1 mph - -   Scattered Clouds
9:00 PM 75.2 °F - 71.6 °F 89% 30.01 in 6.2 mi SSW 8.1 mph - N/A   Mostly Cloudy
10:00 PM 75.2 °F - 71.6 °F 89% 30.01 in 6.2 mi SSW 10.4 mph - N/A   Mostly Cloudy
11:00 PM 75.2 °F - 71.6 °F 89% 30.01 in 6.2 mi SSW 10.4 mph - N/A   Mostly Cloudy